DW8201 Weather Reports


Display with metric or nautical units.
time (UTC)temp
F
wind
direction
speed
MPH
gust
MPH
rain 1hr
in
rain 24hr
in
rain mn
in
humidity
%
barometer
mb
20200708115610 60 0 2.0 7.0 0.00 0.17 0.17 94 1014.6
20200708115113 60 0 3.0 7.0 0.00 0.17 0.17 94 1014.7
20200708114610 60 195 2.0 6.0 0.00 0.17 0.17 94 1014.6
20200708114109 60 0 2.0 6.0 0.00 0.17 0.17 94 1014.6
20200708113608 60 0 2.0 6.0 0.01 0.17 0.17 94 1014.6
20200708113111 59 207 3.0 7.0 0.01 0.17 0.17 94 1014.6
20200708112610 59 0 4.0 9.0 0.01 0.17 0.17 94 1014.6
20200708112108 59 0 4.0 9.0 0.01 0.17 0.17 94 1014.6
20200708111608 59 0 4.0 8.0 0.01 0.17 0.17 95 1014.5
20200708111106 59 0 4.0 8.0 0.01 0.17 0.17 95 1014.5
20200708110603 59 0 3.0 9.0 0.01 0.17 0.17 95 1014.5
20200708110102 59 0 3.0 10.0 0.01 0.17 0.17 95 1014.6
20200708105600 59 199 3.0 10.0 0.02 0.17 0.17 95 1014.5
20200708105103 59 0 4.0 8.0 0.02 0.17 0.17 95 1014.6
20200708104600 58 0 4.0 9.0 0.02 0.17 0.17 95 1014.6
20200708104101 58 172 4.0 9.0 0.02 0.17 0.17 95 1014.5
20200708103601 58 194 4.0 9.0 0.02 0.16 0.16 95 1014.5
20200708103058 58 0 4.0 10.0 0.02 0.16 0.16 95 1014.6
20200708102558 58 0 3.0 10.0 0.02 0.16 0.16 95 1014.6
20200708102059 58 200 3.0 8.0 0.03 0.16 0.16 95 1014.6
20200708101559 58 0 3.0 8.0 0.03 0.16 0.16 95 1014.6
20200708101101 58 182 3.0 7.0 0.04 0.16 0.16 95 1014.6
20200708100558 58 0 3.0 7.0 0.05 0.16 0.16 95 1014.5
20200708100058 58 0 2.0 7.0 0.05 0.16 0.16 96 1014.5
20200708095558 58 0 3.0 7.0 0.04 0.15 0.15 95 1014.5
20200708095056 58 0 4.0 7.0 0.05 0.15 0.15 95 1014.5
20200708094554 57 0 4.0 9.0 0.06 0.15 0.15 95 1014.6
20200708094054 57 0 4.0 9.0 0.05 0.14 0.14 95 1014.5
20200708093554 57 0 3.0 7.0 0.05 0.14 0.14 95 1014.5
20200708093053 57 0 1.0 6.0 0.06 0.14 0.14 96 1014.5
20200708092550 57 0 1.0 5.0 0.05 0.13 0.13 95 1014.5
20200708092051 57 0 2.0 7.0 0.05 0.13 0.13 95 1014.5
20200708091547 57 0 3.0 8.0 0.06 0.13 0.13 95 1014.5
20200708091047 56 0 3.0 8.0 0.06 0.12 0.12 95 1014.6
20200708090548 56 0 4.0 8.0 0.05 0.11 0.12 95 1014.6
20200708090045 56 0 4.0 8.0 0.05 0.11 0.11 95 1014.6
20200708085544 56 0 4.0 9.0 0.05 0.11 0.11 95 1014.7
20200708085044 56 0 3.0 9.0 0.05 0.10 0.10 95 1014.7
20200708084543 56 0 3.0 7.0 0.04 0.09 0.09 95 1014.7
20200708084043 56 185 3.0 7.0 0.04 0.09 0.09 95 1014.7
20200708083542 56 0 3.0 8.0 0.04 0.09 0.09 95 1014.7
20200708083040 56 0 4.0 10.0 0.03 0.09 0.09 94 1014.7
20200708082538 56 0 4.0 10.0 0.03 0.09 0.09 94 1014.7
20200708082036 56 0 2.0 9.0 0.02 0.08 0.08 94 1014.7
20200708081536 56 200 2.0 6.0 0.02 0.07 0.07 94 1014.7
20200708081033 56 0 4.0 9.0 0.01 0.06 0.07 95 1014.7
20200708080528 56 0 4.0 9.0 0.01 0.06 0.06 94 1014.6
20200708080039 56 185 4.0 9.0 0.02 0.06 0.06 94 1014.6
20200708075526 56 0 4.0 9.0 0.02 0.06 0.06 94 1014.5
20200708075026 56 0 3.0 9.0 0.01 0.06 0.06 94 1014.6
20200708074526 56 200 3.0 8.0 0.01 0.06 0.06 94 1014.6
20200708074026 56 0 4.0 8.0 0.01 0.06 0.06 94 1014.6
20200708073528 56 0 4.0 9.0 0.01 0.06 0.06 94 1014.6
20200708073026 56 0 4.0 11.0 0.01 0.06 0.06 94 1014.5
20200708072527 55 200 5.0 11.0 0.01 0.06 0.06 94 1014.5
20200708072024 55 0 4.0 10.0 0.01 0.06 0.06 94 1014.4
20200708071523 55 0 2.0 7.0 0.01 0.06 0.06 94 1014.6
20200708071022 55 0 2.0 8.0 0.01 0.06 0.06 94 1014.4
20200708070523 55 0 2.0 8.0 0.01 0.06 0.06 94 1014.5
20200708070035 55 0 2.0 8.0 0.00 0.05 0.05 94 1014.4
20200708065523 55 0 3.0 8.0 0.00 0.05 0.05 94 1014.3
20200708065021 55 0 4.0 8.0 0.00 0.05 0.05 94 1014.3
20200708064521 55 0 4.0 9.0 0.00 0.05 0.05 94 1014.3
20200708064021 55 0 4.0 9.0 0.00 0.05 0.05 94 1014.2
20200708063521 55 0 3.0 7.0 0.00 0.05 0.05 94 1014.3
20200708063022 55 0 3.0 8.0 0.00 0.05 0.05 94 1014.4
20200708062514 55 238 3.0 8.0 0.00 0.05 0.05 94 1014.4
20200708062018 55 0 3.0 7.0 0.01 0.05 0.05 94 1014.5
20200708061518 55 0 3.0 6.0 0.01 0.05 0.05 94 1014.4
20200708061011 55 0 2.0 8.0 0.02 0.05 0.05 94 1014.4
20200708060510 55 0 2.0 8.0 0.02 0.05 0.05 94 1014.4
20200708060011 55 0 2.0 8.0 0.02 0.05 0.05 94 1014.4
20200708055512 55 0 2.0 8.0 0.02 0.05 0.05 94 1014.4
20200708055012 55 0 2.0 8.0 0.02 0.05 0.05 94 1014.4
20200708054516 55 0 2.0 8.0 0.02 0.05 0.05 94 1014.3
20200708054016 55 0 2.0 6.0 0.02 0.05 0.05 94 1014.2
20200708053510 55 0 2.0 6.0 0.02 0.05 0.05 94 1014.1
20200708053008 55 0 2.0 6.0 0.02 0.05 0.05 94 1014.1
20200708052507 55 0 2.0 4.0 0.02 0.05 0.05 93 1014.3
20200708052001 55 0 2.0 6.0 0.02 0.04 0.04 93 1014.2
20200708051504 55 0 1.0 6.0 0.02 0.04 0.04 93 1014.2
20200708051001 55 0 1.0 6.0 0.02 0.03 0.03 93 1014.3
20200708050501 55 0 1.0 4.0 0.02 0.03 0.03 93 1014.5
20200708050004 54 0 1.0 4.0 0.02 0.03 0.03 93 1014.5
20200708045459 54 0 1.0 4.0 0.02 0.03 0.03 93 1014.5
20200708044959 54 0 1.0 4.0 0.01 0.02 0.02 93 1014.5
20200708044456 54 0 0.0 3.0 0.01 0.02 0.02 93 1014.6
20200708043955 55 0 1.0 3.0 0.01 0.02 0.02 93 1014.6
20200708043455 55 267 1.0 5.0 0.02 0.02 0.02 93 1014.5
20200708042955 55 0 1.0 5.0 0.02 0.02 0.02 92 1014.5
20200708042456 55 0 1.0 4.0 0.02 0.02 0.02 92 1014.4
20200708041956 55 0 1.0 3.0 0.02 0.02 0.02 92 1014.4
20200708041455 55 0 1.0 4.0 0.02 0.02 0.02 92 1014.5
20200708040955 55 0 1.0 6.0 0.02 0.02 0.02 92 1014.4
20200708040453 55 0 2.0 6.0 0.02 0.02 0.02 92 1014.4
20200708035954 55 286 1.0 6.0 0.02 0.02 0.02 91 1014.5
20200708035451 55 0 1.0 4.0 0.02 0.02 0.02 91 1014.4
20200708034949 55 0 1.0 4.0 0.02 0.02 0.02 91 1014.6
20200708034454 55 0 1.0 4.0 0.02 0.02 0.02 90 1014.6
20200708033949 56 0 1.0 5.0 0.02 0.02 0.02 90 1014.6
20200708033450 56 0 1.0 5.0 0.01 0.01 0.01 90 1014.6
20200708032949 56 271 1.0 5.0 0.01 0.01 0.01 89 1014.6
20200708032450 56 260 1.0 8.0 0.01 0.01 0.01 89 1014.6
20200708031948 56 263 2.0 8.0 0.01 0.01 0.01 89 1014.6
20200708031445 56 0 1.0 6.0 0.00 0.00 0.00 89 1014.6
20200708030945 56 0 1.0 5.0 0.00 0.00 0.00 89 1014.5
20200708030447 56 0 0.0 4.0 0.00 0.00 0.00 89 1014.5
20200708025943 57 275 0.0 3.0 0.00 0.00 0.00 89 1014.6
20200708025444 57 0 0.0 1.0 0.00 0.00 0.00 89 1014.4
20200708024942 57 0 0.0 0.0 0.00 0.00 0.00 89 1014.4
20200708024441 57 0 0.0 1.0 0.00 0.00 0.00 89 1014.5
20200708023940 57 0 0.0 1.0 0.00 0.00 0.00 89 1014.5
20200708023438 57 0 0.0 1.0 0.00 0.00 0.00 89 1014.7
20200708022937 57 0 0.0 1.0 0.00 0.00 0.00 88 1014.6
20200708022436 57 0 0.0 1.0 0.00 0.00 0.00 88 1014.7
20200708021934 57 0 0.0 1.0 0.00 0.00 0.00 88 1014.6
20200708021434 57 0 0.0 1.0 0.00 0.00 0.00 88 1014.7
20200708020933 57 0 0.0 4.0 0.00 0.00 0.00 88 1014.7
20200708020435 57 0 0.0 4.0 0.00 0.00 0.00 88 1014.8
20200708015931 57 5 0.0 1.0 0.00 0.00 0.00 88 1014.8
20200708015429 57 5 0.0 0.0 0.00 0.00 0.00 88 1014.9
20200708014930 57 5 0.0 0.0 0.00 0.00 0.00 87 1014.9
20200708014427 57 5 0.0 0.0 0.00 0.00 0.00 87 1014.9
20200708013928 57 5 0.0 0.0 0.00 0.00 0.00 87 1014.9
20200708013423 58 5 0.0 0.0 0.00 0.00 0.00 87 1014.9
20200708012921 58 5 0.0 0.0 0.00 0.00 0.00 87 1014.9
20200708012421 58 5 0.0 0.0 0.00 0.00 0.00 86 1015.0
20200708011920 58 5 0.0 0.0 0.00 0.00 0.00 86 1015.0
20200708011419 58 5 0.0 0.0 0.00 0.00 0.00 85 1015.2
20200708010917 58 5 0.0 1.0 0.00 0.00 0.00 85 1015.2
20200708010415 58 5 0.0 1.0 0.00 0.00 0.00 85 1015.3
20200708005915 58 5 0.0 0.0 0.00 0.00 0.00 85 1015.3
20200708005410 58 5 0.0 2.0 0.00 0.00 0.00 84 1015.3
20200708004907 58 5 0.0 2.0 0.00 0.00 0.00 85 1015.4
20200708004405 58 109 0.0 2.0 0.00 0.00 0.00 84 1015.4
20200708003859 58 109 0.0 2.0 0.00 0.00 0.00 83 1015.4
20200708003400 58 102 0.0 0.0 0.00 0.00 0.00 83 1015.4
20200708002859 58 102 0.0 0.0 0.00 0.00 0.00 82 1015.4
20200708002357 58 102 0.0 0.0 0.00 0.00 0.00 82 1015.4
20200708001857 58 102 0.0 0.0 0.00 0.00 0.00 82 1015.4
20200708001355 58 102 0.0 0.0 0.00 0.00 0.00 82 1015.3
20200708000851 58 102 0.0 1.0 0.00 0.00 0.00 82 1015.4
20200708000349 58 102 0.0 1.0 0.00 0.00 0.00 82 1015.5
20200707235846 59 102 0.0 1.0 0.00 0.00 0.00 82 1015.5
20200707235345 59 102 0.0 1.0 0.00 0.00 0.00 81 1015.6
20200707234844 59 102 0.0 0.0 0.00 0.00 0.00 81 1015.7
20200707234344 59 102 0.0 1.0 0.00 0.00 0.00 81 1015.7
20200707233842 59 102 0.0 1.0 0.00 0.00 0.00 80 1015.8
20200707233344 59 102 0.0 1.0 0.00 0.00 0.00 79 1015.7
20200707232836 59 102 0.0 1.0 0.00 0.00 0.00 79 1015.7
20200707232333 59 103 0.0 0.0 0.00 0.00 0.00 78 1015.7
20200707231832 59 103 0.0 0.0 0.00 0.00 0.00 77 1015.7
20200707231330 59 103 0.0 0.0 0.00 0.00 0.00 77 1015.7
20200707230825 59 103 0.0 0.0 0.00 0.00 0.00 76 1015.8
20200707230327 59 103 0.0 0.0 0.00 0.00 0.00 77 1015.9
20200707225817 59 103 0.0 0.0 0.00 0.00 0.00 76 1015.9
20200707225313 60 103 0.0 0.0 0.00 0.00 0.00 76 1016.0
20200707224812 60 103 0.0 1.0 0.00 0.00 0.00 76 1016.1
20200707224313 60 103 0.0 1.0 0.00 0.00 0.00 76 1016.1
20200707223811 60 103 0.0 1.0 0.00 0.00 0.00 75 1016.3
20200707223308 60 103 0.0 1.0 0.00 0.00 0.00 74 1016.3
20200707222807 60 103 0.0 1.0 0.00 0.00 0.00 74 1016.2
20200707222308 60 103 0.0 1.0 0.00 0.00 0.00 74 1016.1
20200707221807 60 103 0.0 1.0 0.00 0.00 0.00 74 1016.2
20200707221301 60 103 0.0 3.0 0.00 0.00 0.00 75 1016.1
20200707220802 60 103 0.0 3.0 0.00 0.00 0.00 75 1016.1
20200707220259 60 11 0.0 1.0 0.00 0.00 0.00 76 1016.1
20200707215759 60 5 0.0 1.0 0.00 0.00 0.00 76 1016.2
20200707215259 60 0 0.0 1.0 0.00 0.00 0.00 78 1016.3
20200707214800 60 0 0.0 1.0 0.00 0.00 0.00 78 1016.3
20200707214257 60 343 0.0 0.0 0.00 0.00 0.00 78 1016.4
20200707213756 60 343 0.0 0.0 0.00 0.00 0.00 78 1016.4
20200707213258 60 343 0.0 0.0 0.00 0.00 0.00 78 1016.5
20200707212757 60 343 0.0 0.0 0.00 0.00 0.00 76 1016.4
20200707212257 60 343 0.0 0.0 0.00 0.00 0.00 75 1016.2
20200707211756 60 343 0.0 0.0 0.00 0.00 0.00 74 1016.2
20200707211255 60 343 0.0 3.0 0.00 0.00 0.00 74 1016.2
20200707210749 61 343 0.0 3.0 0.00 0.00 0.00 74 1016.3
20200707210247 61 342 0.0 1.0 0.00 0.00 0.00 71 1016.1
20200707205747 61 342 0.0 1.0 0.00 0.00 0.00 71 1016.1
20200707205246 61 342 0.0 1.0 0.00 0.00 0.00 70 1015.9
20200707204743 61 342 0.0 1.0 0.00 0.00 0.00 71 1015.9
20200707204242 61 342 0.0 1.0 0.00 0.00 0.00 72 1015.9
20200707203741 61 342 0.0 2.0 0.00 0.00 0.00 73 1016.1
20200707203239 61 342 0.0 2.0 0.00 0.00 0.00 72 1016.1
20200707202740 61 340 0.0 0.0 0.00 0.00 0.00 71 1016.2
20200707202237 61 340 0.0 0.0 0.00 0.00 0.00 69 1016.3
20200707201735 61 340 0.0 0.0 0.00 0.00 0.00 69 1016.2
20200707201235 62 340 0.0 0.0 0.00 0.00 0.00 69 1016.0
20200707200735 62 340 0.0 0.0 0.00 0.00 0.00 69 1016.1
20200707200235 62 340 0.0 0.0 0.00 0.00 0.00 68 1016.1
20200707195736 62 340 0.0 0.0 0.00 0.00 0.00 68 1016.2
20200707195235 62 340 0.0 1.0 0.00 0.00 0.00 68 1016.4
20200707194733 62 340 0.0 1.0 0.00 0.00 0.00 69 1016.6
20200707194233 62 340 0.0 1.0 0.00 0.00 0.00 68 1016.4
20200707193731 62 340 0.0 1.0 0.00 0.00 0.00 68 1016.5
20200707193229 63 340 0.0 2.0 0.00 0.00 0.00 68 1016.6
20200707192729 63 339 0.0 5.0 0.00 0.00 0.00 68 1016.6
20200707192228 63 340 0.0 5.0 0.00 0.00 0.00 69 1016.5
20200707191728 64 333 0.0 0.0 0.00 0.00 0.00 68 1016.6
20200707191226 64 333 0.0 0.0 0.00 0.00 0.00 67 1016.5
20200707190723 64 333 0.0 0.0 0.00 0.00 0.00 66 1016.5
20200707190221 64 333 0.0 1.0 0.00 0.00 0.00 66 1016.6
20200707185722 64 333 0.0 1.0 0.00 0.00 0.00 65 1016.5
20200707185219 64 333 0.0 1.0 0.00 0.00 0.00 65 1016.6
20200707184720 64 333 0.0 0.0 0.00 0.00 0.00 65 1016.5
20200707184217 64 333 0.0 0.0 0.00 0.00 0.00 65 1016.6
20200707183718 64 333 0.0 0.0 0.00 0.00 0.00 65 1016.6
20200707183215 64 333 0.0 0.0 0.00 0.00 0.00 65 1016.6
20200707182712 65 333 0.0 0.0 0.00 0.00 0.00 65 1016.6
20200707182209 65 333 0.0 1.0 0.00 0.00 0.00 65 1016.6
20200707181707 65 333 0.0 2.0 0.00 0.00 0.00 63 1016.7
20200707181207 65 333 0.0 2.0 0.00 0.00 0.00 64 1016.8
20200707180707 65 331 0.0 2.0 0.00 0.00 0.00 64 1016.8
20200707180208 65 331 0.0 1.0 0.00 0.00 0.00 64 1016.8
20200707175707 65 331 0.0 3.0 0.00 0.00 0.00 63 1016.9
20200707175205 65 331 0.0 3.0 0.00 0.00 0.00 62 1016.9
20200707174706 65 330 0.0 3.0 0.00 0.00 0.00 62 1016.9
20200707174205 65 325 1.0 6.0 0.00 0.00 0.00 60 1016.9
20200707173705 66 325 1.0 6.0 0.00 0.00 0.00 60 1016.9
20200707173205 66 325 1.0 7.0 0.00 0.00 0.00 61 1016.9
20200707172659 66 327 1.0 7.0 0.00 0.00 0.00 61 1017.0
20200707172159 66 336 2.0 6.0 0.00 0.00 0.00 60 1017.0
20200707171657 66 338 2.0 6.0 0.00 0.00 0.00 58 1017.0
20200707171156 67 346 2.0 5.0 0.00 0.00 0.00 59 1017.1
20200707170658 67 338 1.0 6.0 0.00 0.00 0.00 60 1017.1
20200707170159 67 339 1.0 6.0 0.00 0.00 0.00 59 1017.1
20200707165656 67 330 1.0 7.0 0.00 0.00 0.00 58 1017.1
20200707165157 67 347 2.0 8.0 0.00 0.00 0.00 59 1017.2
20200707164658 67 336 1.0 8.0 0.00 0.00 0.00 57 1017.2
20200707164157 67 329 1.0 6.0 0.00 0.00 0.00 58 1017.2
20200707163655 67 324 1.0 8.0 0.00 0.00 0.00 58 1017.3
20200707163155 67 329 1.0 8.0 0.00 0.00 0.00 59 1017.4
20200707162655 67 19 1.0 6.0 0.00 0.00 0.00 57 1017.4
20200707162155 67 336 1.0 6.0 0.00 0.00 0.00 57 1017.4
20200707161656 67 332 1.0 8.0 0.00 0.00 0.00 57 1017.5
20200707161155 68 318 1.0 8.0 0.00 0.00 0.00 56 1017.5
20200707160656 68 338 1.0 8.0 0.00 0.00 0.00 58 1017.5
20200707160153 68 293 2.0 8.0 0.00 0.00 0.00 56 1017.5
20200707155653 68 275 2.0 9.0 0.00 0.00 0.00 57 1017.5
20200707155151 68 312 2.0 9.0 0.00 0.00 0.00 56 1017.5
20200707154653 68 329 3.0 9.0 0.00 0.00 0.00 55 1017.6
20200707154149 68 265 3.0 11.0 0.00 0.00 0.00 56 1017.6
20200707153649 68 327 2.0 11.0 0.00 0.00 0.00 56 1017.6
20200707153150 68 319 2.0 9.0 0.00 0.00 0.00 55 1017.6
20200707152649 68 275 3.0 9.0 0.00 0.00 0.00 55 1017.6
20200707152148 69 337 3.0 13.0 0.00 0.00 0.00 53 1017.7
20200707151646 69 338 3.0 13.0 0.00 0.00 0.00 53 1017.7
20200707151142 69 0 3.0 10.0 0.00 0.00 0.00 53 1017.8
20200707150641 69 261 2.0 10.0 0.00 0.00 0.00 53 1017.8
20200707150143 69 298 2.0 10.0 0.00 0.00 0.00 52 1017.8
20200707145637 69 346 2.0 11.0 0.00 0.00 0.00 53 1017.9
20200707145138 69 15 2.0 11.0 0.00 0.00 0.00 57 1017.9
20200707144631 68 17 3.0 10.0 0.00 0.00 0.00 54 1017.9
20200707144131 69 340 3.0 8.0 0.00 0.00 0.00 57 1018.0
20200707143629 68 319 3.0 10.0 0.00 0.00 0.00 56 1018.0
20200707143129 68 309 3.0 10.0 0.00 0.00 0.00 55 1018.1
20200707142627 68 345 3.0 10.0 0.00 0.00 0.00 57 1018.1
20200707142125 68 303 3.0 10.0 0.00 0.00 0.00 55 1018.1
20200707141625 68 271 3.0 9.0 0.00 0.00 0.00 59 1018.1
20200707141127 68 317 2.0 11.0 0.00 0.00 0.00 57 1018.1
20200707140626 68 341 2.0 11.0 0.00 0.00 0.00 60 1018.2
20200707140125 67 292 2.0 9.0 0.00 0.00 0.00 58 1018.2
20200707135624 67 0 2.0 9.0 0.00 0.00 0.00 58 1018.3
20200707135123 67 327 3.0 12.0 0.00 0.00 0.00 57 1018.3
20200707134635 67 39 3.0 12.0 0.00 0.00 0.00 56 1018.4
20200707134122 68 278 2.0 10.0 0.00 0.00 0.00 57 1018.4
20200707133621 68 325 1.0 7.0 0.00 0.00 0.00 58 1018.5
20200707133121 67 265 2.0 9.0 0.00 0.00 0.00 62 1018.4
20200707132621 66 0 2.0 12.0 0.00 0.00 0.00 60 1018.4
20200707132122 66 355 2.0 12.0 0.00 0.00 0.00 59 1018.4
20200707131621 66 296 2.0 9.0 0.00 0.00 0.00 58 1018.4
20200707131121 66 282 1.0 9.0 0.00 0.00 0.00 58 1018.5
20200707130615 66 308 1.0 7.0 0.00 0.00 0.00 59 1018.5
20200707130115 66 186 2.0 7.0 0.00 0.00 0.00 60 1018.5
20200707125611 66 348 2.0 7.0 0.00 0.00 0.00 60 1018.5
20200707125111 66 0 1.0 8.0 0.00 0.00 0.00 59 1018.4
20200707124611 66 306 2.0 9.0 0.00 0.00 0.00 60 1018.4
20200707124107 66 0 4.0 15.0 0.00 0.00 0.00 59 1018.5
20200707123607 67 302 4.0 15.0 0.00 0.00 0.00 59 1018.6
20200707123107 67 0 3.0 10.0 0.00 0.00 0.00 61 1018.5
20200707122607 67 0 2.0 9.0 0.00 0.00 0.00 59 1018.6
20200707122107 67 295 3.0 13.0 0.00 0.00 0.00 61 1018.5
20200707121607 67 15 4.0 13.0 0.00 0.00 0.00 61 1018.5
20200707121109 67 300 3.0 10.0 0.00 0.00 0.00 61 1018.5
20200707120608 67 319 4.0 13.0 0.00 0.00 0.00 63 1018.6
20200707120107 67 347 3.0 13.0 0.00 0.00 0.00 63 1018.6